Regional Weather Roundup
Issued by NWS Cleveland, OH

Home | Current Version | Previous Version | Graphics & Text | Print | Product List | Glossary On
Versions: 1 2 3 4 5 6 7 8 9 10 11 12 13 14 15 16 17 18 19 20 21 22 23 24 25 26 27 28 29 30 31 32 33 34 35 36 37 38 39 40 41 42 43 44 45 46 47 48 49 50
000
ASUS41 KCLE 301910
RWRCLE
OHIO REGIONAL WEATHER ROUNDUP
NATIONAL WEATHER SERVICE CLEVELAND, OH
300 PM EDT SAT APR 30 2016

NOTE: "FAIR" INDICATES FEW OR NO CLOUDS BELOW 12,000 FEET WITH NO
SIGNIFICANT WEATHER AND/OR OBSTRUCTIONS TO VISIBILITY.

OHZ001>008-015>018-024>027-034-035-043-044-302000-
   NORTHWEST OHIO

CITY           SKY/WX    TMP DP  RH WIND       PRES   REMARKS
DEFIANCE       LGT RAIN  51  44  77 E10       30.05F
FINDLAY        LGT RAIN  52  45  77 E10       30.04F
TOLEDO EXPRESS LGT RAIN  48  43  82 NE13      30.07F
TOLEDO EXEC    LGT RAIN  48  41  76 E8        30.09F
LIMA           RAIN      49  47  93 E12       30.03F FOG
$$

OHZ009>014-019>023-028>033-038-089-302000-
   NORTHEAST OHIO

CITY           SKY/WX    TMP DP  RH WIND       PRES   REMARKS
CLE-HOPKINS    CLOUDY    51  44  77 N8        30.12S
CLE-LAKEFRONT  CLOUDY    50  45  83 NE10      30.10S
CUY CO. ARPT   CLOUDY    57  46  67 N8        30.09F
LORAIN-ELYRIA  LGT RAIN  55  44  66 S6        30.10R
ASHTABULA      PTSUNNY   58  45  62 SE6       30.10F
AKRON-CANTON   CLOUDY    59  46  62 S6        30.09R
WOOSTER        LGT RAIN  53  47  79 S3        30.10S
MANSFIELD      LGT RAIN  49  46  90 E7        30.08F
YOUNGSTOWN     CLOUDY    61  46  57 E9        30.08F
$$

OHZ042-051>053-060>062-070>072-077>081-302000-
  SOUTHWEST OHIO

CITY           SKY/WX    TMP DP  RH WIND       PRES   REMARKS
CINC-COVINGTON LGT RAIN  57  57 100 SE15      29.96F FOG
CINC-LUNKEN    LGT RAIN  56  56 100 NE7       30.00S FOG
HAMILTON       LGT RAIN  56  54  93 E8        29.98F FOG
DAYTON         LGT RAIN  53  51  93 E13       30.00F FOG
WRIGHT-PAT AFB NOT AVBL
DAYTON GENERAL LGT RAIN  54  51  90 E12       29.97F FOG
WILMINGTON     LGT RAIN  54  52  93 E9        30.00F FOG
$$

OHZ036-037-039>041-045>050-054>059-063>069-073>076-082>088-302000-
  CENTRAL AND SOUTHEAST OHIO

CITY           SKY/WX    TMP DP  RH WIND       PRES   REMARKS
COLUMBUS       LGT RAIN  54  52  93 E7        30.04F FOG
OSU AIRPORT    LGT RAIN  54  51  90 E8        30.04F FOG
BOLTON FIELD   LGT RAIN  54  52  94 E5        30.04F FOG
RICKENBACK AFB LGT RAIN  53  52  95 E8        30.03F
NEWARK         LGT RAIN  57  50  77 E5        30.06F
MARION         LGT RAIN  52  48  86 E8        30.06F FOG
LANCASTER      LGT RAIN  56  51  84 E3        30.05F
ZANESVILLE     LGT RAIN  61  51  70 N3        30.07F
NEW PHILLY     LGT RAIN  59  48  67 CALM      30.09R
$$




USA.gov is the U.S. government's official web portal to all federal, state and local government web resources and services.